Regional Weather Roundup
Issued by NWS

Home | Current Version | Previous Version | Text Only | Print | Product List | Glossary On
Versions: 1 2 3 4 5 6 7 8 9 10 11 12 13 14 15 16 17 18 19 20 21 22 23 24 25 26 27 28 29 30 31 32 33 34 35 36 37 38 39 40 41 42 43 44 45 46 47 48 49 50
000
ASUS43 KTOP 070308
RWRKS

WEATHER ROUNDUP FOR KANSAS
NATIONAL WEATHER SERVICE GOODLAND KS
900 PM CST SAT FEB 06 2016

NOTE:  "FAIR" INDICATES FEW OR NO CLOUDS BELOW 12,000 FEET WITH NO
SIGNIFICANT WEATHER AND/OR OBSTRUCTIONS TO VISIBILITY.

KSZ001>006-013>018-027>032-041>047-070400-
NORTHWEST KANSAS

CITY           SKY/WX    TMP DP  RH WIND       PRES   REMARKS
GOODLAND       CLEAR     35  22  58 W16       30.05F WCI  25
HAYS           CLEAR     36  21  55 SW15      30.05F WCI  26
HILL CITY      CLOUDY    39  27  62 W13       30.04S WCI  31
RUSSELL        CLOUDY    38  26  62 S15       30.04F WCI  29
$$

KSZ061>065-074>080-084>089-070400-
SOUTHWEST KANSAS

CITY           SKY/WX    TMP DP  RH WIND       PRES   REMARKS
DODGE CITY     CLEAR     38  16  40 S13       30.12F WCI  30
ELKHART          N/A     42  11  28 SW8         N/A
GARDEN CITY    CLEAR     35  19  52 S9        30.10F
GREAT BEND     CLOUDY    37  19  48 SW10      30.09F WCI  30
LIBERAL        CLEAR     37  12  35 SW12      30.14F WCI  30
PRATT          CLOUDY    36  18  49 S14       30.12F WCI  27
$$

KSZ066>073-081>083-090>101-070400-
SOUTHEAST KANSAS

CITY           SKY/WX    TMP DP  RH WIND       PRES   REMARKS
CHANUTE        CLEAR     35  27  72 SW8       30.20F
COFFEYVILLE    CLEAR     40  27  59 S6        30.23F
HUTCHINSON     CLEAR     37  25  61 S6        30.13F
MEDICINE LODGE   N/A     39  21  48 S10       30.16S WCI  32
NEWTON         PTCLDY    37  25  60 S13       30.15F WCI  29
PARSONS        CLEAR     39  27  62 SW5       30.22F
WICHITA INTL   PTCLDY    38  27  64 S12       30.16F WCI  30
WICHITA JABRA  PTCLDY    41  26  55 S13       30.16S
WICHITA MCCONL CLOUDY    38  26  64 S12       30.16F WCI  30
WINFIELD       CLOUDY    36  26  67 S6        30.20F
$$

KSZ007>012-019>026-033>040-048>060-102>105-070400-
NORTHEAST KANSAS

CITY           SKY/WX    TMP DP  RH WIND       PRES   REMARKS
CONCORDIA      CLOUDY    39  24  55 SW15      30.03F WCI  31
EMPORIA        PTCLDY    36  26  67 S14       30.14F WCI  27
LAWRENCE       PTCLDY    40  27  59 SW10      30.13F WCI  33
MANHATTAN      CLOUDY    41  27  57 SW14      30.07F
MARYSVILLE     CLEAR     36  28  75 S7        30.03F
OLATHE IND     CLOUDY    40  27  59 S13       30.14F WCI  32
OLATHE EXE     PTCLDY    38  27  64 SW7       30.14S
SALINA         CLOUDY    41  25  53 S10       30.07F
TOPEKA BILLARD CLEAR     40  26  57 S9        30.11F
TOPEKA FORBES  CLOUDY    38  27  64 S12       30.11F WCI  30
$$



USA.gov is the U.S. government's official web portal to all federal, state and local government web resources and services.